STARLINK-37513, 69456

Orbit data source: Space-Track

STARLINK-37513, 69456 is a payload satellite owned by SpaceX/Seattle (US) in LEO that was launched on Mon, 08 Jun 2026 UTC via an FALCON 9 launch vehicle from the Air Force Eastern Test Range (AFETR). Payload-class satellites include a variety of spacecraft equipped with specific instruments for various scientific and technological missions. These include communications satellites like Starlink; space stations such as the ISS; scientific satellites like the Hubble; Earth observation satellites from companies like Planet Labs, Umbra, and HawkEye 360; GPS; miniature CubeSats for education and research; and military/defense satellites.

Not visible in the next 10 days
Identifier
69456, 2026-127P
Orbit
LEO
Country
Flag of USUS
Related business
Manufacturer
SpaceX/Seattle
Mission
Operational spacecraft
Bus & Motor
STARLINK V2MO, Unknown motor
Mass
575 kg wet, ~530 kg dry
Launch date (UTC)
2026-06-08 (2 weeks ago)
Launch vehicle
FALCON 9
Launch site
Air Force Eastern Test Range (AFETR)
Object type
Payload
Rocket body
Debris
Shape & HBR
Unknown
Radar Cross Section
Large (>1 m²)

Expand to show TLE details & history
Last TLE update: 10 hours ago

TLE from 10 hours ago
0 STARLINK-37513
1 69456U 26127P   26171.41668980 -.00081519  00000-0 -41270-3 0  9990
2 69456  53.1580 246.0295 0001275  74.4467  96.6806 15.80907531  3163
Epoch: 2026-06-20T10:00Z
TLE epoch observation values (Epoch: 2026-06-20T10:00:01.998Z)
Latitude
7.04204°
Longitude
2.10907°
Altitude
328.251 km
Speed
7.713 km/s
True Right ascension
04h 02m 59s
True Declination
6° 59' 52"
Sunlit
Object was in daylight at epoch
Visualization orbit readout
Latitude
Unknown
Longitude
Unknown
Altitude
Unknown
Speed
Unknown
Apparent Right ascension
Unknown
Apparent Declination
Unknown
Sunlit
N/A
Visualization observer readout
Local Sidereal Time
07:16:31
Azimuth
Unknown
Elevation
Unknown
Doppler factor
Unknown
Orbital elements
Apogee altitude
328.99 km
Perigee altitude
327.28 km
Semi-major axis
6,706.272 km
Eccentricity
0.00013
Inclination
53.158°
RAAN
246.0295°
Arg. of periapsis
74.4467°
True anomaly
96.69511°
Mean anomaly
96.6806°
Eccentric anomaly
96.68786°
Mean motion
3.95204 °/min
Orbital period
91.09 mins
BSTAR
-0.0004127
Loading maneuver chart data...
Computing Atmospheric mass density...
Loading historical data...
Loading historical data...
Loading historical data...
Loading historical data...
Loading historical data...
Loading historical data...
Loading historical data...

Documentation

Showing up to 5 results
|